EW2549 Weather Reports


Display with metric or nautical units.
time (UTC)temp
F
wind
direction
speed
MPH
gust
MPH
rain 1hr
in
rain 24hr
in
rain mn
in
humidity
%
barometer
mb
20260902194534 86 69 1.0 8.0 0.00 0.01 0.00 23 1004.4
20260902193016 86 100 0.0 7.0 0.00 0.01 0.00 24 1004.5
20260902191514 86 91 0.0 10.0 0.00 0.01 0.00 25 1004.8
20260902190011 85 92 0.0 8.0 0.00 0.01 0.00 26 1005.0
20260902184509 86 99 0.0 9.0 0.00 0.01 0.00 26 1005.2
20260902183006 85 88 0.0 4.0 0.00 0.01 0.00 26 1005.3
20260902181503 85 69 1.0 8.0 0.00 0.01 0.00 26 1005.8
20260902180001 84 65 0.0 7.0 0.00 0.01 0.00 28 1005.9
20260902174604 84 59 0.0 7.0 0.00 0.01 0.00 26 1006.3
20260902173058 83 87 0.0 5.0 0.00 0.01 0.00 31 1006.4
20260902171557 82 105 0.0 5.0 0.00 0.01 0.00 30 1006.5
20260902170051 81 99 0.0 8.0 0.00 0.01 0.00 33 1006.6
20260902164552 80 107 0.0 7.0 0.00 0.01 0.00 34 1006.9
20260902163045 79 123 0.0 5.0 0.00 0.01 0.00 37 1006.9
20260902161542 77 128 0.0 4.0 0.00 0.01 0.00 39 1007.0
20260902160037 76 125 0.0 5.0 0.00 0.01 0.00 40 1007.3
20260902154534 75 168 0.0 2.0 0.00 0.01 0.00 44 1007.2
20260902153129 73 105 0.0 3.0 0.00 0.01 0.00 47 1007.3
20260902151529 71 109 0.0 2.0 0.00 0.01 0.00 50 1007.2
20260902150022 68 153 0.0 0.0 0.00 0.01 0.00 52 1007.4
20260902144519 67 154 0.0 0.0 0.00 0.01 0.00 53 1007.3
20260902143016 64 157 0.0 0.0 0.00 0.01 0.00 59 1007.3
20260902141515 61 168 0.0 1.0 0.00 0.01 0.00 62 1007.5
20260902140016 58 192 0.0 0.0 0.00 0.01 0.00 69 1007.5
20260902134524 56 192 0.0 0.0 0.00 0.01 0.00 71 1007.6
20260902133013 55 192 0.0 0.0 0.00 0.01 0.00 73 1007.6
20260902131511 54 256 0.0 5.0 0.00 0.01 0.00 72 1007.0
20260902130010 54 275 0.0 0.0 0.00 0.01 0.00 72 1007.0
20260902124510 54 296 0.0 3.0 0.00 0.01 0.00 71 1006.8
20260902123006 55 302 0.0 0.0 0.00 0.01 0.00 69 1006.8
20260902121506 55 302 0.0 0.0 0.00 0.01 0.00 69 1006.7
20260902120002 56 309 0.0 0.0 0.00 0.01 0.00 68 1006.6
20260902114559 56 309 0.0 0.0 0.00 0.01 0.00 68 1006.3
20260902113100 56 191 0.0 3.0 0.00 0.01 0.00 67 1006.4
20260902111555 57 254 0.0 0.0 0.00 0.01 0.00 66 1006.4
20260902110100 57 254 0.0 0.0 0.00 0.01 0.00 65 1006.4
20260902104616 57 254 0.0 0.0 0.00 0.01 0.00 66 1006.2
20260902103052 57 254 0.0 0.0 0.00 0.01 0.00 66 1006.2
20260902101551 57 254 0.0 0.0 0.00 0.01 0.00 65 1006.2
20260902100108 57 254 0.0 0.0 0.00 0.01 0.00 65 1006.1
20260902094549 57 254 0.0 0.0 0.00 0.01 0.00 64 1006.3
20260902093050 58 254 0.0 0.0 0.00 0.01 0.00 64 1006.3
20260902090042 59 254 0.0 0.0 0.00 0.01 0.00 62 1006.2
20260902084539 60 254 0.0 0.0 0.00 0.02 0.00 63 1006.2
20260902083036 60 254 0.0 0.0 0.00 0.02 0.00 61 1006.3
20260902081549 61 254 0.0 1.0 0.00 0.02 0.00 60 1006.3
20260902080033 62 254 0.0 0.0 0.00 0.02 0.00 57 1006.2
20260902074528 63 254 0.0 0.0 0.00 0.02 0.00 57 1006.4
20260902073024 64 254 0.0 0.0 0.00 0.02 0.00 53 1006.2
20260902071531 65 254 0.0 0.0 0.00 0.02 0.00 50 1006.2
20260902070019 66 254 0.0 0.0 0.00 0.02 0.00 50 1006.1
20260902064516 66 254 0.0 1.0 0.00 0.03 0.00 47 1006.0
20260902063015 66 254 0.0 3.0 0.00 0.03 0.00 46 1005.8
20260902061514 66 249 0.0 0.0 0.00 0.03 0.00 47 1006.0
20260902060012 66 249 0.0 3.0 0.00 0.03 0.00 48 1005.9
20260902054512 66 249 0.0 3.0 0.00 0.03 0.03 49 1005.9
20260902053011 66 250 0.0 0.0 0.00 0.03 0.03 51 1006.0
20260902051510 66 262 0.0 0.0 0.00 0.03 0.03 52 1006.0
20260902050011 66 263 0.0 0.0 0.00 0.03 0.03 52 1006.0
20260902044522 67 263 0.0 0.0 0.00 0.03 0.03 53 1006.2
20260902043008 68 264 0.0 0.0 0.00 0.03 0.03 51 1006.3
20260902041507 69 264 0.0 0.0 0.00 0.03 0.03 49 1006.4
20260902040007 70 264 0.0 0.0 0.00 0.03 0.03 47 1006.4
20260902034506 70 264 0.0 0.0 0.00 0.04 0.03 46 1006.5
20260902033005 70 242 0.0 0.0 0.00 0.04 0.03 46 1006.6
20260902031508 71 303 0.0 0.0 0.00 0.04 0.03 47 1006.5
20260902030005 71 346 0.0 0.0 0.00 0.04 0.03 44 1006.6
20260902024504 73 346 0.0 0.0 0.00 0.12 0.03 45 1006.4
20260902023003 74 346 0.0 0.0 0.00 0.12 0.03 41 1005.9
20260902021503 75 346 0.0 0.0 0.00 0.12 0.03 38 1005.8
20260902020136 75 346 0.0 0.0 0.00 0.12 0.03 39 1005.8
20260902014503 76 278 0.0 0.0 0.00 0.12 0.03 35 1005.7
20260902013001 77 333 0.0 0.0 0.00 0.12 0.03 37 1005.7
20260902011600 78 11 0.0 0.0 0.00 0.12 0.03 36 1005.6
20260902010059 78 265 0.0 0.0 0.00 0.12 0.03 35 1005.5
20260902004559 80 243 0.0 0.0 0.00 0.14 0.03 34 1005.5
20260902003104 81 190 0.0 0.0 0.00 0.14 0.03 35 1005.2
20260902001558 82 190 0.0 0.0 0.00 0.14 0.03 34 1005.3
20260902000057 83 190 0.0 0.0 0.00 0.14 0.03 35 1005.2
20260901234608 84 190 0.0 0.0 0.00 0.14 0.03 36 1005.3
20260901233059 85 190 0.0 0.0 0.00 0.14 0.03 34 1005.4
20260901231557 86 190 0.0 0.0 0.00 0.14 0.03 32 1005.4
20260901230057 87 190 0.0 0.0 0.00 0.14 0.03 26 1005.3
20260901224555 88 217 0.0 0.0 0.00 0.14 0.03 26 1005.4
20260901223100 86 219 0.0 0.0 0.00 0.14 0.03 30 1005.4
20260901221609 85 234 0.0 0.0 0.01 0.14 0.03 33 1005.6
20260901220048 84 71 0.0 0.0 0.01 0.14 0.03 32 1005.6
20260901214547 82 78 0.0 2.0 0.01 0.14 0.03 34 1005.8
20260901213048 83 92 0.0 0.0 0.01 0.14 0.03 43 1006.0
20260901211544 83 68 0.0 0.0 0.00 0.13 0.02 33 1006.2
20260901210043 83 68 0.0 0.0 0.00 0.13 0.02 29 1006.2
20260901204546 85 88 0.0 4.0 0.00 0.13 0.02 30 1006.2
20260901203057 84 95 1.0 7.0 0.00 0.13 0.02 30 1006.2
20260901201547 85 106 0.0 3.0 0.00 0.13 0.02 31 1006.4
20260901200038 86 93 0.0 4.0 0.00 0.13 0.02 29 1006.4